Weather History for Kake, AK

Change the Weather History Date:

Wednesday, September 26, 2012

  Actual Average Record
Temperature  
Mean Temperature 50 °F -  
Max Temperature 53 °F 51 °F 59 °F (1997)
Min Temperature 48 °F 41 °F 35 °F (2011)
Degree Days  
Heating Degree Days 14    
Moisture  
Dew Point 47 °F    
Average Humidity 85    
Maximum Humidity 93    
Minimum Humidity 72    
Precipitation  
Precipitation 0.00 in - - ()
Sea Level Pressure  
Sea Level Pressure 29.82 in    
Wind  
Wind Speed 11 mph (SE)    
Max Wind Speed 24 mph    
Max Gust Speed 37 mph    
Visibility 10 miles    
Events      
Averages and records for this station are not official NWS values.
T = Trace of Precipitation, MM = Missing Value Source: NWS Daily Summary

Daily Weather History Graph

Daily Weather History Graph

Search for Another Location

Airport:

Trip Planner

Search our weather history database for the weather conditions in past years. The results will help you decide how hot, cold, wet, or windy it might be!

Date:

Astronomy

Sep. 26, 2012 Rise Set
Actual Time 6:50 AM AKDT 6:41 PM AKDT
Civil Twilight 6:12 AM AKDT 7:19 PM AKDT
Nautical Twilight 5:27 AM AKDT 8:04 PM AKDT
Astronomical Twilight 4:39 AM AKDT 8:51 PM AKDT
Moon 5:10 PM AKDT (9/26) 2:50 AM AKDT (9/26)
Length of Visible Light 13h 07m
Length of Day
11h 51m
Waxing Gibbous, 89% of the Moon is Illuminated
Sep 26
Waxing Gibbous
Sep 29
Full
Oct 7
Last Quarter
Oct 15
New
Oct 21
First Quarter

Hourly Weather History & Observations

Time (AKDT) Temp. Dew Point Humidity Pressure Visibility Wind Dir Wind Speed Gust Speed Precip Events Conditions
12:16 AM 48.2 °F 44.6 °F 87% 29.95 in 10.0 mi SE 12.7 mph 20.7 mph N/A   Overcast
12:36 AM 48.2 °F 44.6 °F 87% 29.96 in 10.0 mi SE 16.1 mph 20.7 mph N/A   Overcast
12:56 AM 48.2 °F 44.6 °F 87% 29.96 in 10.0 mi SE 11.5 mph 16.1 mph N/A   Overcast
1:16 AM 48.2 °F 44.6 °F 87% 29.97 in 10.0 mi SE 13.8 mph - N/A   Overcast
1:36 AM 48.2 °F 44.6 °F 87% 29.97 in 10.0 mi SE 15.0 mph 19.6 mph N/A   Overcast
1:56 AM 48.2 °F 44.6 °F 87% 29.97 in 10.0 mi ESE 11.5 mph - N/A   Overcast
2:16 AM 48.2 °F 44.6 °F 87% 29.98 in 10.0 mi ESE 13.8 mph 18.4 mph N/A   Overcast
2:36 AM 48.2 °F 46.4 °F 93% 29.99 in 10.0 mi ESE 9.2 mph 16.1 mph N/A   Overcast
2:56 AM 48.2 °F 46.4 °F 93% 29.99 in 10.0 mi SE 9.2 mph - N/A   Overcast
3:16 AM 48.2 °F 44.6 °F 87% 29.99 in 10.0 mi SE 10.4 mph - N/A   Mostly Cloudy
3:36 AM 48.2 °F 46.4 °F 93% 29.99 in 10.0 mi SE 6.9 mph - N/A   Partly Cloudy
3:56 AM 48.2 °F 46.4 °F 93% 29.99 in 10.0 mi SE 9.2 mph - N/A   Clear
4:16 AM 48.2 °F 44.6 °F 87% 29.99 in 10.0 mi ESE 8.1 mph - N/A   Clear
4:36 AM 48.2 °F 46.4 °F 93% 29.99 in 10.0 mi ESE 9.2 mph - N/A   Clear
4:56 AM 48.2 °F 46.4 °F 93% 30.00 in 10.0 mi ESE 8.1 mph - N/A   Clear
5:16 AM 48.2 °F 46.4 °F 93% 30.00 in 10.0 mi ESE 9.2 mph - N/A   Mostly Cloudy
5:36 AM 48.2 °F 46.4 °F 93% 29.99 in 10.0 mi ESE 6.9 mph - N/A   Scattered Clouds
5:56 AM 48.2 °F 46.4 °F 93% 29.99 in 10.0 mi ESE 10.4 mph - N/A   Clear
6:16 AM 48.2 °F 44.6 °F 87% 29.99 in 10.0 mi ESE 9.2 mph - N/A   Mostly Cloudy
6:36 AM 48.2 °F 44.6 °F 87% 29.99 in 10.0 mi ESE 6.9 mph - N/A   Overcast
6:56 AM 48.2 °F 44.6 °F 87% 29.99 in 10.0 mi ESE 8.1 mph - N/A   Overcast
7:16 AM 48.2 °F 44.6 °F 87% 29.98 in 10.0 mi East 6.9 mph - N/A   Overcast
7:36 AM 48.2 °F 44.6 °F 87% 29.97 in 10.0 mi East 4.6 mph - N/A   Overcast
7:56 AM 48.2 °F 44.6 °F 87% 29.97 in 10.0 mi ESE 8.1 mph - N/A   Overcast
8:16 AM 50.0 °F 44.6 °F 82% 29.97 in 10.0 mi ESE 6.9 mph - N/A   Mostly Cloudy
8:36 AM 50.0 °F 44.6 °F 82% 29.96 in 10.0 mi East 8.1 mph - N/A   Mostly Cloudy
8:56 AM 50.0 °F 44.6 °F 82% 29.97 in 10.0 mi ESE 5.8 mph - N/A   Mostly Cloudy
9:16 AM 50.0 °F 44.6 °F 82% 29.97 in 10.0 mi ESE 4.6 mph - N/A   Mostly Cloudy
9:36 AM 51.8 °F 46.4 °F 82% 29.96 in 10.0 mi ESE 6.9 mph - N/A   Mostly Cloudy
9:56 AM 51.8 °F 46.4 °F 82% 29.95 in 10.0 mi ESE 3.5 mph - N/A   Overcast
10:16 AM 51.8 °F 46.4 °F 82% 29.94 in 10.0 mi ESE 5.8 mph - N/A   Overcast
10:36 AM 51.8 °F 46.4 °F 82% 29.94 in 10.0 mi SSE 4.6 mph - N/A   Overcast
10:56 AM 51.8 °F 46.4 °F 82% 29.93 in 10.0 mi SE 5.8 mph - N/A   Overcast
11:16 AM 51.8 °F 46.4 °F 82% 29.92 in 10.0 mi SE 6.9 mph - N/A   Mostly Cloudy
11:36 AM 53.6 °F 46.4 °F 77% 29.92 in 10.0 mi ESE 6.9 mph - N/A   Overcast
11:56 AM 53.6 °F 46.4 °F 77% 29.91 in 10.0 mi SE 8.1 mph - N/A   Overcast
12:16 PM 53.6 °F 46.4 °F 77% 29.91 in 10.0 mi SE 5.8 mph - N/A   Overcast
12:36 PM 53.6 °F 46.4 °F 77% 29.90 in 10.0 mi SE 5.8 mph - N/A   Overcast
12:56 PM 53.6 °F 46.4 °F 77% 29.88 in 10.0 mi ESE 6.9 mph - N/A   Overcast
1:16 PM 53.6 °F 44.6 °F 72% 29.87 in 10.0 mi SE 8.1 mph - N/A   Mostly Cloudy
1:36 PM 53.6 °F 44.6 °F 72% 29.87 in 10.0 mi ESE 5.8 mph - N/A   Mostly Cloudy
2:16 PM 53.6 °F 46.4 °F 77% 29.84 in 10.0 mi ESE 8.1 mph - N/A   Overcast
2:36 PM 51.8 °F 46.4 °F 82% 29.83 in 5.0 mi ESE 6.9 mph - N/A   Overcast
2:56 PM 51.8 °F 46.4 °F 82% 29.81 in 10.0 mi East 9.2 mph - N/A   Overcast
3:16 PM 51.8 °F 46.4 °F 82% 29.80 in 10.0 mi ESE 8.1 mph - N/A   Overcast
3:36 PM 51.8 °F 46.4 °F 82% 29.78 in 10.0 mi ESE 11.5 mph - N/A   Overcast
3:56 PM 51.8 °F 48.2 °F 88% 29.75 in 10.0 mi ESE 11.5 mph 17.3 mph N/A   Overcast
4:16 PM 53.6 °F 48.2 °F 82% 29.76 in 10.0 mi ESE 8.1 mph - N/A   Overcast
4:36 PM 53.6 °F 48.2 °F 82% 29.74 in 10.0 mi SE 10.4 mph 18.4 mph N/A   Overcast
4:56 PM 53.6 °F 48.2 °F 82% 29.72 in 10.0 mi SE 11.5 mph 16.1 mph N/A   Overcast
5:16 PM 53.6 °F 48.2 °F 82% 29.71 in 10.0 mi SE 13.8 mph 17.3 mph N/A   Overcast
5:36 PM 53.6 °F 48.2 °F 82% 29.68 in 10.0 mi ESE 12.7 mph 21.9 mph N/A   Overcast
5:56 PM 53.6 °F 48.2 °F 82% 29.65 in 10.0 mi ESE 8.1 mph 19.6 mph N/A   Overcast
6:16 PM 53.6 °F 48.2 °F 82% 29.64 in 10.0 mi SE 16.1 mph 26.5 mph N/A   Overcast
6:36 PM 53.6 °F 48.2 °F 82% 29.62 in 7.0 mi ESE 12.7 mph 21.9 mph N/A   Overcast
6:56 PM 53.6 °F 48.2 °F 82% 29.59 in 10.0 mi ESE 16.1 mph 26.5 mph N/A   Overcast
7:16 PM 53.6 °F 48.2 °F 82% 29.58 in 10.0 mi SE 13.8 mph 27.6 mph N/A   Overcast
7:36 PM 53.6 °F 48.2 °F 82% 29.58 in 10.0 mi SE 13.8 mph 20.7 mph N/A   Overcast
7:56 PM 53.6 °F 48.2 °F 82% 29.56 in 10.0 mi SE 11.5 mph 18.4 mph N/A   Overcast
8:16 PM 53.6 °F 48.2 °F 82% 29.54 in 8.0 mi ESE 12.7 mph 19.6 mph N/A   Overcast
8:36 PM 53.6 °F 48.2 °F 82% 29.54 in 10.0 mi SE 13.8 mph 20.7 mph N/A   Overcast
8:56 PM 53.6 °F 48.2 °F 82% 29.53 in 9.0 mi SE 18.4 mph 25.3 mph N/A   Mostly Cloudy
9:16 PM 51.8 °F 48.2 °F 88% 29.52 in 10.0 mi SE 13.8 mph 25.3 mph N/A   Overcast
9:36 PM 53.6 °F 48.2 °F 82% 29.51 in 10.0 mi SE 24.2 mph 33.4 mph N/A   Overcast
9:56 PM 51.8 °F 48.2 °F 88% 29.50 in 10.0 mi SE 24.2 mph 36.8 mph N/A   Overcast
10:16 PM 51.8 °F 48.2 °F 88% 29.48 in 9.0 mi SE 19.6 mph 34.5 mph N/A   Overcast
10:36 PM 51.8 °F 48.2 °F 88% 29.47 in 10.0 mi SE 16.1 mph 27.6 mph N/A   Overcast
10:56 PM 51.8 °F 48.2 °F 88% 29.47 in 10.0 mi SE 16.1 mph 24.2 mph N/A   Overcast
11:16 PM 51.8 °F 48.2 °F 88% 29.46 in 8.0 mi SE 18.4 mph 27.6 mph N/A   Overcast
11:36 PM 51.8 °F 48.2 °F 88% 29.46 in 10.0 mi SE 15.0 mph 24.2 mph N/A   Overcast
11:56 PM 51.8 °F 48.2 °F 88% 29.43 in 9.0 mi ESE 19.6 mph 32.2 mph N/A   Overcast